Regional Weather Roundup
Issued by NWS Green Bay, WI

Home | Current Version | Previous Version | Graphics & Text | Print | Product List | Glossary Off
Versions: 1 2 3 4 5 6 7 8 9 10 11 12 13 14 15 16 17 18 19 20 21 22 23 24 25 26 27 28 29 30 31 32 33 34 35 36 37 38 39 40 41 42 43 44 45 46 47 48 49 50

617
ASUS43 KGRB 272200
RWRGRB

NORTH-CENTRAL AND NORTHEAST WISCONSIN REGIONAL WEATHER ROUNDUP
NATIONAL WEATHER SERVICE GREEN BAY WI
400 PM CST MON FEB 27 2017

WIZ005-009-010>012-018-019-272300-
NORTH CENTRAL WISCONSIN

CITY           SKY/WX    TMP DP  RH WIND       PRES   REMARKS
IRONWOOD       PTSUNNY   41  20  43 SW9       29.91F
MANITOWISH WTR NOT AVBL
ARBOR VITAE    NOT AVBL
EAGLE RIVER    NOT AVBL
LAND O LAKES   NOT AVBL
RHINELANDER    CLOUDY    39  17  41 SW9       29.96S
PHILLIPS       NOT AVBL
ANTIGO         NOT AVBL
TOMAHAWK       NOT AVBL
MERRILL        NOT AVBL
$$

WIZ013-073-272300-
NORTHEAST WISCONSIN

CITY           SKY/WX    TMP DP  RH WIND       PRES   REMARKS
IRON MOUNTAIN  SUNNY     40  18  41 S9        29.97S
MARINETTE      SUNNY     39  25  57 S13       30.06F
$$

WIZ017-030-035>037-045-272300-
CENTRAL WISCONSIN

CITY           SKY/WX    TMP DP  RH WIND       PRES   REMARKS
MEDFORD        NOT AVBL
WAUSAU         SUNNY     40  17  39 S13       29.98S
MOSINEE        MOSUNNY   39  19  45 S9        30.00S
MARSHFIELD     SUNNY     41  18  39 S7        29.97S
WISC RAPIDS    SUNNY     43  20  39 SW9       30.00F
STEVENS POINT  NOT AVBL
WAUPACA        NOT AVBL
SHAWANO        SUNNY     43  24  46 S8        30.04S
CLINTONVILLE   NOT AVBL
WAUTOMA        MOSUNNY   42  29  59 MISG      30.03S
$$

WIZ038-039-048-051-272300-
FOX VALLEY

CITY           SKY/WX    TMP DP  RH WIND       PRES   REMARKS
NWS GREEN BAY  MOSUNNY   39  30  70 S13       30.05F
APPLETON       PTSUNNY   41  25  52 S13       30.02F
OSHKOSH        MOSUNNY   41  29  62 S6        30.03F
FOND DU LAC    CLOUDY    42  28  57 SE9       30.03F
$$

WIZ022-050-052-272300-
EAST CENTRAL WISCONSIN

CITY           SKY/WX    TMP DP  RH WIND       PRES   REMARKS
EPHRAIM        NOT AVBL
WASHINGTON ISL NOT AVBL
STURGEON BAY   CLOUDY    37  26  64 S13G22    30.07F
MANITOWOC      NOT AVBL
SHEBOYGAN      CLOUDY    38  31  76 SE8       30.07F
$$

LMZ563-521-522-541>543-272300-
LAKESHORE

STATION/POSITION TIME  TEMP    WIND        PRES    VSBY  WAVE
                       AIR SEA DIR/SP/G                  HT/PER
                 (UTC) (F)     (DEG/KT/KT) (MB)    (MI)  (FT/S)
SHEBOYGAN LKSHOR 2100   36     160/  9/  9 1019.5F
KEWAUNEE LKSHORE 2130   36     180/ 15/ 16 1018.4F
NORTHPORT PIER   2140   38     170/  6/ 14 1018.6S
SISTER BAY LKSHO 2105          210/ 18/ 20   N/A
CHAMBERS ISLAND  2140   39     160/  7/ 13 1017.9S
MENOMINEE LKSHOR 2130   37     170/ 11/ 15 1017.1F
$$




USA.gov is the U.S. government's official web portal to all federal, state and local government web resources and services.